Regional Weather Roundup
Issued by NWS

Home | Current Version | Previous Version | Graphics & Text | Print | Product List | Glossary On
Versions: 1 2 3 4 5 6 7 8 9 10 11 12 13 14 15 16 17 18 19 20 21 22 23 24 25 26 27 28
000
ASUS45 KBOI 300710
RWRID

IDAHO REGIONAL WEATHER ROUNDUP
NATIONAL WEATHER SERVICE BOISE ID
100 AM MDT SAT JUL 30 2016

NOTE: "FAIR" INDICATES FEW OR NO CLOUDS BELOW 12000 FEET
WITH NO SIGNIFICANT WEATHER AND/OR OBSTRUCTIONS TO VISIBILITY

IDZ012-014-300800-
SOUTHWEST IDAHO


CITY           SKY/WX    TMP DP  RH WIND       PRES   REMARKS
BOISE          CLEAR     79  35  20 SE10      29.82R
CALDWELL       CLEAR     72  56  57 CALM      29.79S
MOUNTAIN HOME  CLEAR     78  38  23 SW2       29.83R
$$

IDZ016-017-300800-
SOUTHCENTRAL IDAHO


CITY           SKY/WX    TMP DP  RH WIND       PRES   REMARKS
BURLEY         CLEAR     66  49  54 SW8       29.91F
JEROME         CLEAR     75  43  31 CALM      29.91F
TWIN FALLS     CLEAR     74  39  28 S13       29.92F
$$

IDZ019>023-300800-
SOUTHEAST IDAHO


CITY           SKY/WX    TMP DP  RH WIND       PRES   REMARKS
IDAHO FALLS    CLEAR     79  39  23 S13       29.92F
POCATELLO      CLEAR     80  37  21 SW8       29.94R
REXBURG        CLEAR     62  46  55 N5        29.95F
$$

IDZ006-010-011-018-031-032-300800-
CENTRAL IDAHO MOUNTAINS


CITY           SKY/WX    TMP DP  RH WIND       PRES   REMARKS
MCCALL         CLEAR     63  47  55 CALM      30.01F
HAILEY         CLEAR     64  37  36 NW9       30.03S HAZE
STANLEY          N/A     54  33  45 S7        30.15S
SALMON         CLEAR     66  45  45 CALM      29.91S
CHALLIS        CLEAR     66  33  29 W5        29.99S
$$

IDZ002-004-006-007-026-300800-
NORTHERN IDAHO


CITY           SKY/WX    TMP DP  RH WIND       PRES   REMARKS
LEWISTON       CLEAR     82  47  29 S7        29.74S
LOWELL           N/A     66  58  75 CALM      29.81S
COEUR D`ALENE  CLEAR     73  55  53 SE6       29.75F
MULLAN PASS    CLEAR     69  41  36 SW6       30.05F
$$




USA.gov is the U.S. government's official web portal to all federal, state and local government web resources and services.